Gulkana, AK

8:13 PM AKDT on July 20, 2017 (GMT -0800)
Gulkana

Weather History for PAGK - November, 2012

Change the Weather History Date:

Wednesday, November 14, 2012

  Actual Average Record
Temperature  
Mean Temperature 12 °F -  
Max Temperature 16 °F 14 °F 41 °F (1964)
Min Temperature 7 °F 0 °F -36 °F (1989)
Degree Days  
Heating Degree Days 54    
Moisture  
Dew Point 10 °F    
Average Humidity 86    
Maximum Humidity 93    
Minimum Humidity 79    
Precipitation  
Precipitation 0.16 in - - ()
Snow  
Snow 0.00 in - - ()
Snow Depth 10.00 in    
Sea Level Pressure  
Sea Level Pressure 29.56 in    
Wind  
Wind Speed 3 mph (North)    
Max Wind Speed 6 mph    
Max Gust Speed -    
Visibility 4 miles    
Events Snow    
Averages and records for this station are not official NWS values.
T = Trace of Precipitation, MM = Missing Value Source: NWS Daily Summary

Daily Weather History Graph

Daily Weather History Graph

Search for Another Location

Airport or City:

Trip Planner

Search our weather history database for the weather conditions in past years. The results will help you decide how hot, cold, wet, or windy it might be!

Date:

Astronomy

Nov. 14, 2012 Rise Set
Actual Time 8:53 AM AKST 3:58 PM AKST
Civil Twilight 7:59 AM AKST 4:52 PM AKST
Nautical Twilight 7:03 AM AKST 5:48 PM AKST
Astronomical Twilight 6:11 AM AKST 6:40 PM AKST
Moon 10:18 AM AKST (11/14) 4:29 PM AKST (11/14)
Length of Visible Light 8h 52m
Length of Day
7h 04m
New Moon, 1% of the Moon is Illuminated
Nov 14
New Moon
Nov 20
First Quarter
Nov 28
Full
Dec 6
Last Quarter
Dec 12
New

Hourly Weather History & Observations

Time (AKST) Temp. Windchill Dew Point Humidity Pressure Visibility Wind Dir Wind Speed Gust Speed Precip Events Conditions
12:01 AM 10.4 °F 4.0 °F 6.8 °F 85% 29.74 in 2.0 mi North 3.5 mph - 0.00 in Snow Light Snow
12:18 AM 10.4 °F 4.0 °F 6.8 °F 85% 29.74 in 4.0 mi North 3.5 mph - 0.00 in Snow Light Snow
12:44 AM 10.4 °F 4.0 °F 6.8 °F 85% 29.73 in 2.5 mi North 3.5 mph - 0.00 in Snow Light Snow
12:53 AM 10.0 °F 1.8 °F 7.0 °F 87% 29.87 in 2.5 mi North 4.6 mph - 0.01 in Snow Light Snow
12:59 AM 10.4 °F 0.8 °F 6.8 °F 85% 29.72 in 3.0 mi North 5.8 mph - 0.00 in Snow Light Snow
1:06 AM 10.4 °F 2.2 °F 6.8 °F 85% 29.72 in 2.0 mi North 4.6 mph - 0.00 in Snow Light Snow
1:15 AM 10.4 °F - 6.8 °F 85% 29.72 in 1.8 mi Calm Calm - 0.00 in Snow Light Snow
1:53 AM 10.9 °F 2.9 °F 7.0 °F 84% 29.84 in 1.0 mi North 4.6 mph - 0.02 in Snow Light Snow
2:14 AM 10.4 °F 4.0 °F 6.8 °F 85% 29.68 in 1.5 mi North 3.5 mph - 0.02 in Snow Light Snow
2:48 AM 10.4 °F - 8.6 °F 92% 29.66 in 2.5 mi Calm Calm - 0.03 in Snow Light Snow
3:19 AM 10.4 °F - 8.6 °F 92% 29.65 in 1.8 mi Calm Calm - 0.00 in Snow Light Snow
3:34 AM 10.4 °F 4.0 °F 8.6 °F 92% 29.64 in 2.0 mi North 3.5 mph - 0.01 in Snow Light Snow
3:53 AM 10.9 °F 2.9 °F 7.0 °F 84% 29.77 in 1.8 mi North 4.6 mph - 0.01 in Snow Light Snow
4:46 AM 10.4 °F 0.8 °F 6.8 °F 85% 29.60 in 2.5 mi North 5.8 mph - 0.02 in Snow Light Snow
4:53 AM 10.9 °F 2.9 °F 7.0 °F 84% 29.74 in 2.5 mi North 4.6 mph - 0.02 in Snow Light Snow
5:15 AM 10.4 °F 2.2 °F 6.8 °F 85% 29.59 in 4.0 mi NNW 4.6 mph - 0.01 in Snow Light Snow
5:53 AM 10.9 °F 1.4 °F 7.0 °F 84% 29.71 in 7.0 mi North 5.8 mph - 0.01 in Snow Light Snow
6:02 AM 10.4 °F 2.2 °F 6.8 °F 85% 29.57 in 7.0 mi North 4.6 mph - 0.00 in Snow Light Snow
6:53 AM 10.9 °F 1.4 °F 8.1 °F 88% 29.68 in 10.0 mi NNW 5.8 mph - 0.00 in Snow Light Snow
7:53 AM 12.0 °F 5.9 °F 8.1 °F 84% 29.66 in 10.0 mi NNW 3.5 mph - 0.00 in   Overcast
8:53 AM 12.0 °F 4.1 °F 9.0 °F 88% 29.63 in 3.0 mi NW 4.6 mph - 0.00 in Snow Light Snow
9:53 AM 12.9 °F - 9.0 °F 84% 29.62 in 0.8 mi Calm Calm - 0.01 in Snow Light Snow
10:53 AM 14.0 °F 8.2 °F 10.0 °F 84% 29.58 in 0.8 mi North 3.5 mph - 0.02 in Snow Light Snow
11:11 AM 14.0 °F - 10.4 °F 86% 29.45 in 1.0 mi Calm Calm - 0.01 in Snow Light Snow
11:34 AM 14.0 °F - 10.4 °F 86% 29.44 in 0.8 mi Calm Calm - 0.02 in Snow Light Snow
11:53 AM 15.1 °F - 10.9 °F 84% 29.57 in 1.0 mi Calm Calm - 0.03 in Snow Light Snow
12:05 PM 14.0 °F - 10.4 °F 86% 29.43 in 0.8 mi Calm Calm - 0.00 in Snow Light Snow
12:26 PM 15.8 °F - 10.4 °F 79% 29.42 in 1.0 mi Calm Calm - 0.01 in Snow Light Snow
12:53 PM 15.1 °F - 10.9 °F 84% 29.54 in 1.0 mi Calm Calm - 0.02 in Snow Light Snow
1:10 PM 15.8 °F - 10.4 °F 79% 29.40 in 0.8 mi Calm Calm - 0.01 in Snow Light Snow
1:53 PM 16.0 °F - 12.0 °F 84% 29.51 in 0.8 mi Calm Calm - 0.03 in Snow Light Snow
2:13 PM 15.8 °F - 12.2 °F 86% 29.37 in 1.0 mi Calm Calm - 0.01 in Snow Light Snow
2:53 PM 16.0 °F - 12.9 °F 88% 29.48 in 0.8 mi Calm Calm - 0.03 in Snow Light Snow
3:35 PM 15.8 °F - 12.2 °F 86% 29.34 in 1.0 mi Calm Calm - 0.02 in Snow Light Snow
3:53 PM 16.0 °F - 12.9 °F 88% 29.46 in 1.0 mi Calm Calm - 0.03 in Snow Light Snow
4:18 PM 15.8 °F - 14.0 °F 93% 29.32 in 2.0 mi Calm Calm - 0.01 in Snow Light Snow
4:24 PM 15.8 °F - 14.0 °F 93% 29.32 in 3.0 mi Calm Calm - 0.01 in Snow Light Snow
4:53 PM 16.0 °F - 14.0 °F 92% 29.44 in 5.0 mi Calm Calm - 0.01 in   Overcast
5:53 PM 15.1 °F - 12.9 °F 91% 29.44 in 10.0 mi Calm Calm - N/A   Overcast
6:53 PM 16.0 °F - 12.9 °F 88% 29.44 in 10.0 mi Calm Calm - N/A   Overcast
7:53 PM 15.1 °F - 12.9 °F 91% 29.46 in 10.0 mi Calm Calm - N/A   Overcast
8:53 PM 15.1 °F - 12.9 °F 91% 29.47 in 10.0 mi Calm Calm - N/A   Overcast
9:26 PM 15.8 °F - 12.2 °F 86% 29.35 in 10.0 mi Calm Calm - N/A   Overcast
9:53 PM 15.1 °F - 12.9 °F 91% 29.48 in 10.0 mi Calm Calm - N/A   Overcast
10:10 PM 15.8 °F - 12.2 °F 86% 29.35 in 10.0 mi Calm Calm - N/A   Overcast
10:53 PM 15.1 °F - 12.9 °F 91% 29.49 in 10.0 mi Calm Calm - N/A   Overcast
11:53 PM 15.1 °F - 12.9 °F 91% 29.51 in 10.0 mi Calm Calm - N/A   Overcast